Year,Month,Day,Hour,Minute,Value (Times are PST for temperature in C)
2014,08,13,01,06,12.10
2014,08,13,01,07,12.10
2014,08,13,01,08,12.10
2014,08,13,01,09,12.10
2014,08,13,01,10,12.10
2014,08,13,01,11,12.10
2014,08,13,01,12,12.10
2014,08,13,01,13,12.10
2014,08,13,01,14,12.10
2014,08,13,01,15,12.10
2014,08,13,01,16,12.10
2014,08,13,01,17,12.10
2014,08,13,01,18,12.10
2014,08,13,01,19,12.10
2014,08,13,01,20,12.10
2014,08,13,01,21,12.10
2014,08,13,01,22,12.10
2014,08,13,01,23,12.10
2014,08,13,01,24,12.10
2014,08,13,01,25,12.10
2014,08,13,01,26,12.10
2014,08,13,01,27,12.10
2014,08,13,01,28,12.10
2014,08,13,01,29,12.10
2014,08,13,01,30,12.10
2014,08,13,01,31,12.10
2014,08,13,01,32,12.10
2014,08,13,01,33,12.10
2014,08,13,01,34,12.10
2014,08,13,01,35,12.10
2014,08,13,01,36,12.10
2014,08,13,01,37,12.10
2014,08,13,01,38,12.10
2014,08,13,01,39,12.10
2014,08,13,01,40,12.10
2014,08,13,01,41,12.10
2014,08,13,01,42,12.10
2014,08,13,01,43,12.10
2014,08,13,01,44,12.10
2014,08,13,01,45,12.10
2014,08,13,01,46,12.10
2014,08,13,01,47,12.10
2014,08,13,01,48,12.10
2014,08,13,01,49,12.10
2014,08,13,01,50,12.10
2014,08,13,01,51,12.10
2014,08,13,01,52,12.10
2014,08,13,01,53,12.10
2014,08,13,01,54,12.10
2014,08,13,01,55,12.10
2014,08,13,01,56,12.10
2014,08,13,01,57,12.10
2014,08,13,01,58,12.10
2014,08,13,01,59,12.10
2014,08,13,02,00,12.10
2014,08,13,02,01,12.10
2014,08,13,02,02,12.10
2014,08,13,02,03,12.10
2014,08,13,02,04,12.10
2014,08,13,02,05,12.10
2014,08,13,02,06,12.10
2014,08,13,02,07,12.20
2014,08,13,02,08,12.20
2014,08,13,02,09,12.20
2014,08,13,02,10,12.20
2014,08,13,02,11,12.20
2014,08,13,02,12,12.20
2014,08,13,02,13,12.20
2014,08,13,02,14,12.20
2014,08,13,02,15,12.20
2014,08,13,02,16,12.20
2014,08,13,02,17,12.20
2014,08,13,02,18,12.20
2014,08,13,02,19,12.20
2014,08,13,02,20,12.20
2014,08,13,02,21,12.20
2014,08,13,02,22,12.20
2014,08,13,02,23,12.20
2014,08,13,02,24,12.20
2014,08,13,02,25,12.20
2014,08,13,02,26,12.20
2014,08,13,02,27,12.20
2014,08,13,02,28,12.20
2014,08,13,02,29,12.20
2014,08,13,02,30,12.20
2014,08,13,02,31,12.20
2014,08,13,02,32,12.20
2014,08,13,02,33,12.20
2014,08,13,02,34,12.20
2014,08,13,02,35,12.20
2014,08,13,02,36,12.20
2014,08,13,02,37,12.20
2014,08,13,02,38,12.20
2014,08,13,02,39,12.20
2014,08,13,02,40,12.20
2014,08,13,02,41,12.20
2014,08,13,02,42,12.20
2014,08,13,02,43,12.20
2014,08,13,02,44,12.20
2014,08,13,02,45,12.20
2014,08,13,02,46,12.20
2014,08,13,02,47,12.20
2014,08,13,02,48,12.20
2014,08,13,02,49,12.20
2014,08,13,02,50,12.20
2014,08,13,02,51,12.20
2014,08,13,02,52,12.20
2014,08,13,02,53,12.20
2014,08,13,02,54,12.20
2014,08,13,02,55,12.20
2014,08,13,02,56,12.20
2014,08,13,02,57,12.20
2014,08,13,02,58,12.20
2014,08,13,02,59,12.20
2014,08,13,03,08,11.80
2014,08,13,03,09,11.80
2014,08,13,03,10,11.80
2014,08,13,03,11,11.80
2014,08,13,03,12,11.80
2014,08,13,03,13,11.80
2014,08,13,03,14,11.80
2014,08,13,03,15,11.80
2014,08,13,03,16,11.80
2014,08,13,03,17,11.80
2014,08,13,03,18,11.80
2014,08,13,03,19,11.80
2014,08,13,03,20,11.80
2014,08,13,03,21,11.80
2014,08,13,03,22,11.80
2014,08,13,03,23,11.80
2014,08,13,03,24,11.80
2014,08,13,03,25,11.80
2014,08,13,03,26,11.80
2014,08,13,03,27,11.80
2014,08,13,03,28,11.80
2014,08,13,03,29,11.80
2014,08,13,03,30,11.80
2014,08,13,03,31,11.80
2014,08,13,03,32,11.80
2014,08,13,03,33,11.80
2014,08,13,03,34,11.80
2014,08,13,03,35,11.80
2014,08,13,03,36,11.80
2014,08,13,03,37,11.80
2014,08,13,03,38,11.80
2014,08,13,03,39,11.80
2014,08,13,03,40,11.80
2014,08,13,03,41,11.80
2014,08,13,03,42,11.80
2014,08,13,03,43,11.80
2014,08,13,03,44,11.80
2014,08,13,03,45,11.80
2014,08,13,03,46,11.80
2014,08,13,03,47,11.80
2014,08,13,03,48,11.80
2014,08,13,03,49,11.80
2014,08,13,03,50,11.80
2014,08,13,03,51,11.80
2014,08,13,03,52,11.80
2014,08,13,03,53,11.80
2014,08,13,03,54,11.80
2014,08,13,03,55,11.80
2014,08,13,03,56,11.80
2014,08,13,03,57,11.80
2014,08,13,03,58,11.80
2014,08,13,03,59,11.80
2014,08,13,04,00,11.80
2014,08,13,04,01,11.80
2014,08,13,04,02,11.80
2014,08,13,04,03,11.80
2014,08,13,04,04,11.80
2014,08,13,04,05,11.80
2014,08,13,04,06,11.80
2014,08,13,04,07,11.80
2014,08,13,04,08,11.60
2014,08,13,04,09,11.60
2014,08,13,04,10,11.60
2014,08,13,04,11,11.60
2014,08,13,04,12,11.60
2014,08,13,04,13,11.60
2014,08,13,04,14,11.60
2014,08,13,04,15,11.60
2014,08,13,04,16,11.60
2014,08,13,04,17,11.60
2014,08,13,04,18,11.60
2014,08,13,04,19,11.60
2014,08,13,04,20,11.60
2014,08,13,04,21,11.60
2014,08,13,04,22,11.60
2014,08,13,04,23,11.60
2014,08,13,04,24,11.60
2014,08,13,04,25,11.60
2014,08,13,04,26,11.60
2014,08,13,04,27,11.60
2014,08,13,04,28,11.60
2014,08,13,04,29,11.60
2014,08,13,04,30,11.60
2014,08,13,04,31,11.60
2014,08,13,04,32,11.60
2014,08,13,04,33,11.60
2014,08,13,04,34,11.60
2014,08,13,04,35,11.60
2014,08,13,04,36,11.60
2014,08,13,04,37,11.60
2014,08,13,04,38,11.60
2014,08,13,04,39,11.60
2014,08,13,04,40,11.60
2014,08,13,04,41,11.60
2014,08,13,04,42,11.60
2014,08,13,04,43,11.60
2014,08,13,04,44,11.60
2014,08,13,04,45,11.60
2014,08,13,04,46,11.60
2014,08,13,04,47,11.60
2014,08,13,04,48,11.60
2014,08,13,04,49,11.60
2014,08,13,04,50,11.60
2014,08,13,04,51,11.60
2014,08,13,04,52,11.60
2014,08,13,04,53,11.60
2014,08,13,04,54,11.60
2014,08,13,04,55,11.60
2014,08,13,04,56,11.60
2014,08,13,04,57,11.60
2014,08,13,04,58,11.60
2014,08,13,04,59,11.60
2014,08,13,05,00,11.60
2014,08,13,05,01,11.60
2014,08,13,05,02,11.60
2014,08,13,05,03,11.60
2014,08,13,05,04,11.60
2014,08,13,05,05,11.60
2014,08,13,05,06,11.60
2014,08,13,05,07,11.60
2014,08,13,05,08,11.60
2014,08,13,05,09,12.10
2014,08,13,05,10,12.10
2014,08,13,05,11,12.10
2014,08,13,05,12,12.10
2014,08,13,05,13,12.10
2014,08,13,05,14,12.10
2014,08,13,05,15,12.10
2014,08,13,05,16,12.10
2014,08,13,05,17,12.10
2014,08,13,05,18,12.10
2014,08,13,05,19,12.10
2014,08,13,05,20,12.10
2014,08,13,05,21,12.10
2014,08,13,05,22,12.10
2014,08,13,05,23,12.10
2014,08,13,05,24,12.10
2014,08,13,05,25,12.10
2014,08,13,05,26,12.10
2014,08,13,05,27,12.10
2014,08,13,05,28,12.10
2014,08,13,05,29,12.10
2014,08,13,05,30,12.10
2014,08,13,05,31,12.10
2014,08,13,05,32,12.10
2014,08,13,05,33,12.10
2014,08,13,05,34,12.10
2014,08,13,05,35,12.10
2014,08,13,05,36,12.10
2014,08,13,05,37,12.10
2014,08,13,05,38,12.10
2014,08,13,05,39,12.10
2014,08,13,05,40,12.10
2014,08,13,05,41,12.10
2014,08,13,05,42,12.10
2014,08,13,05,43,12.10
2014,08,13,05,44,12.10
2014,08,13,05,45,12.10
2014,08,13,05,46,12.10
2014,08,13,05,47,12.10
2014,08,13,05,48,12.10
2014,08,13,05,49,12.10
2014,08,13,05,50,12.10
2014,08,13,05,51,12.10
2014,08,13,05,52,12.10
2014,08,13,05,53,12.10
2014,08,13,05,54,12.10
2014,08,13,05,55,12.10
2014,08,13,05,56,12.10
2014,08,13,05,57,12.10
2014,08,13,05,58,12.10
2014,08,13,05,59,12.10
2014,08,13,06,00,12.10
2014,08,13,06,01,12.10
2014,08,13,06,02,12.10
2014,08,13,06,03,12.10
2014,08,13,06,04,12.10
2014,08,13,06,05,12.10
2014,08,13,06,06,12.10
2014,08,13,06,07,12.10
2014,08,13,06,08,12.10
2014,08,13,06,09,12.10
2014,08,13,06,10,11.80
2014,08,13,06,11,11.80
2014,08,13,06,12,11.80
2014,08,13,06,13,11.80
2014,08,13,06,14,11.80
2014,08,13,06,15,11.80
2014,08,13,06,16,11.80
2014,08,13,06,17,11.80
2014,08,13,06,18,11.80
2014,08,13,06,19,11.80
2014,08,13,06,20,11.80
2014,08,13,06,21,11.80
2014,08,13,06,22,11.80
2014,08,13,06,23,11.80
2014,08,13,06,24,11.80
2014,08,13,06,25,11.80
2014,08,13,06,26,11.80
2014,08,13,06,27,11.80
2014,08,13,06,28,11.80
2014,08,13,06,29,11.80
2014,08,13,06,30,11.80
2014,08,13,06,31,11.80
2014,08,13,06,32,11.80
2014,08,13,06,33,11.80
2014,08,13,06,34,11.80
2014,08,13,06,35,11.80
2014,08,13,06,36,11.80
2014,08,13,06,37,11.80
2014,08,13,06,38,11.80
2014,08,13,06,39,11.80
2014,08,13,06,40,11.80
2014,08,13,06,41,11.80
2014,08,13,06,42,11.80
2014,08,13,06,43,11.80
2014,08,13,06,44,11.80
2014,08,13,06,45,11.80
2014,08,13,06,46,11.80
2014,08,13,06,47,11.80
2014,08,13,06,48,11.80
2014,08,13,06,49,11.80
2014,08,13,06,50,11.80
2014,08,13,06,51,11.80
2014,08,13,06,52,11.80
2014,08,13,06,53,11.80
2014,08,13,06,54,11.80
2014,08,13,06,55,11.80
2014,08,13,06,56,11.80
2014,08,13,06,57,11.80
2014,08,13,06,58,11.80
2014,08,13,06,59,11.80
2014,08,13,07,11,11.90
2014,08,13,07,12,11.90
2014,08,13,07,13,11.90
2014,08,13,07,14,11.90
2014,08,13,07,15,11.90
2014,08,13,07,16,11.90
2014,08,13,07,17,11.90
2014,08,13,07,18,11.90
2014,08,13,07,19,11.90
2014,08,13,07,20,11.90
2014,08,13,07,21,11.90
2014,08,13,07,22,11.90
2014,08,13,07,23,11.90
2014,08,13,07,24,11.90
2014,08,13,07,25,11.90
2014,08,13,07,26,11.90
2014,08,13,07,27,11.90
2014,08,13,07,28,11.90
2014,08,13,07,29,11.90
2014,08,13,07,30,11.90
2014,08,13,07,31,11.90
2014,08,13,07,32,11.90
2014,08,13,07,33,11.90
2014,08,13,07,34,11.90
2014,08,13,07,35,11.90
2014,08,13,07,36,11.90
2014,08,13,07,37,11.90
2014,08,13,07,38,11.90
2014,08,13,07,39,11.90
2014,08,13,07,40,11.90
2014,08,13,07,41,11.90
2014,08,13,07,42,11.90
2014,08,13,07,43,11.90
2014,08,13,07,44,11.90
2014,08,13,07,45,11.90
2014,08,13,07,46,11.90
2014,08,13,07,47,11.90
2014,08,13,07,48,11.90
2014,08,13,07,49,11.90
2014,08,13,07,50,11.90
2014,08,13,07,51,11.90
2014,08,13,07,52,11.90
2014,08,13,07,53,11.90
2014,08,13,07,54,11.90
2014,08,13,07,55,11.90
2014,08,13,07,56,11.90
2014,08,13,07,57,11.90
2014,08,13,07,58,11.90
2014,08,13,07,59,11.90
2014,08,13,08,13,11.90
2014,08,13,08,14,11.90
2014,08,13,08,15,11.90
2014,08,13,08,16,11.90
2014,08,13,08,17,11.90
2014,08,13,08,18,11.90
2014,08,13,08,19,11.90
2014,08,13,08,20,11.90
2014,08,13,08,21,11.90
2014,08,13,08,22,11.90
2014,08,13,08,23,11.90
2014,08,13,08,24,11.90
2014,08,13,08,25,11.90
2014,08,13,08,26,11.90
2014,08,13,08,27,11.90
2014,08,13,08,28,11.90
2014,08,13,08,29,11.90
2014,08,13,08,30,11.90
2014,08,13,08,31,11.90
2014,08,13,08,32,11.90
2014,08,13,08,33,11.90
2014,08,13,08,34,11.90
2014,08,13,08,35,11.90
2014,08,13,08,36,11.90
2014,08,13,08,37,11.90
2014,08,13,08,38,11.90
2014,08,13,08,39,11.90
2014,08,13,08,40,11.90
2014,08,13,08,41,11.90
2014,08,13,08,42,11.90
2014,08,13,08,43,11.90
2014,08,13,08,44,11.90
2014,08,13,08,45,11.90
2014,08,13,08,46,11.90
2014,08,13,08,47,11.90
2014,08,13,08,48,11.90
2014,08,13,08,49,11.90
2014,08,13,08,50,11.90
2014,08,13,08,51,11.90
2014,08,13,08,52,11.90
2014,08,13,08,53,11.90
2014,08,13,08,54,11.90
2014,08,13,08,55,11.90
2014,08,13,08,56,11.90
2014,08,13,08,57,11.90
2014,08,13,08,58,11.90
2014,08,13,08,59,11.90
2014,08,13,09,14,11.90
2014,08,13,09,15,11.90
2014,08,13,09,16,11.90
2014,08,13,09,17,11.90
2014,08,13,09,18,11.90
2014,08,13,09,19,11.90
2014,08,13,09,20,11.90
2014,08,13,09,21,11.90
2014,08,13,09,22,11.90
2014,08,13,09,23,11.90
2014,08,13,09,24,11.90
2014,08,13,09,25,11.90
2014,08,13,09,26,11.90
2014,08,13,09,27,11.90
2014,08,13,09,28,11.90
2014,08,13,09,29,11.90
2014,08,13,09,30,11.90
2014,08,13,09,31,11.90
2014,08,13,09,32,11.90
2014,08,13,09,33,11.90
2014,08,13,09,34,11.90
2014,08,13,09,35,11.90
2014,08,13,09,36,11.90
2014,08,13,09,37,11.90
2014,08,13,09,38,11.90
2014,08,13,09,39,11.90
2014,08,13,09,40,11.90
2014,08,13,09,41,11.90
2014,08,13,09,42,11.90
2014,08,13,09,43,11.90
2014,08,13,09,44,11.90
2014,08,13,09,45,11.90
2014,08,13,09,46,11.90
2014,08,13,09,47,11.90
2014,08,13,09,48,11.90
2014,08,13,09,49,11.90
2014,08,13,09,50,11.90
2014,08,13,09,51,11.90
2014,08,13,09,52,11.90
2014,08,13,09,53,11.90
2014,08,13,09,54,11.90
2014,08,13,09,55,11.90
2014,08,13,09,56,11.90
2014,08,13,09,57,11.90
2014,08,13,09,58,11.90
2014,08,13,09,59,11.90
2014,08,13,10,15,11.60
2014,08,13,10,16,11.60
2014,08,13,10,17,11.60
2014,08,13,10,18,11.60
2014,08,13,10,19,11.60
2014,08,13,10,20,11.60
2014,08,13,10,21,11.60
2014,08,13,10,22,11.60
2014,08,13,10,23,11.60
2014,08,13,10,24,11.60
2014,08,13,10,25,11.60
2014,08,13,10,26,11.60
2014,08,13,10,27,11.60
2014,08,13,10,28,11.60
2014,08,13,10,29,11.60
2014,08,13,10,30,11.60
2014,08,13,10,31,11.60
2014,08,13,10,32,11.60
2014,08,13,10,33,11.60
2014,08,13,10,34,11.60
2014,08,13,10,35,11.60
2014,08,13,10,36,11.60
2014,08,13,10,37,11.60
2014,08,13,10,38,11.60
2014,08,13,10,39,11.60
2014,08,13,10,40,11.60
2014,08,13,10,41,11.60
2014,08,13,10,42,11.60
2014,08,13,10,43,11.60
2014,08,13,10,44,11.60
2014,08,13,10,45,11.60
2014,08,13,10,46,11.60
2014,08,13,10,47,11.60
2014,08,13,10,48,11.60
2014,08,13,10,49,11.60
2014,08,13,10,50,11.60
2014,08,13,10,51,11.60
2014,08,13,10,52,11.60
2014,08,13,10,53,11.60
2014,08,13,10,54,11.60
2014,08,13,10,55,11.60
2014,08,13,10,56,11.60
2014,08,13,10,57,11.60
2014,08,13,10,58,11.60
2014,08,13,10,59,11.60
2014,08,13,11,16,12.60
2014,08,13,11,17,12.60
2014,08,13,11,18,12.60
2014,08,13,11,19,12.60
2014,08,13,11,20,12.60
2014,08,13,11,21,12.60
2014,08,13,11,22,12.60
2014,08,13,11,23,12.60
2014,08,13,11,24,12.60
2014,08,13,11,25,12.60
2014,08,13,11,26,12.60
2014,08,13,11,27,12.60
2014,08,13,11,28,12.60
2014,08,13,11,29,12.60
2014,08,13,11,30,12.60
2014,08,13,11,31,12.60
2014,08,13,11,32,12.60
2014,08,13,11,33,12.60
2014,08,13,11,34,12.60
2014,08,13,11,35,12.60
2014,08,13,11,36,12.60
2014,08,13,11,37,12.60
2014,08,13,11,38,12.60
2014,08,13,11,39,12.60
2014,08,13,11,40,12.60
2014,08,13,11,41,12.60
2014,08,13,11,42,12.60
2014,08,13,11,43,12.60
2014,08,13,11,44,12.60
2014,08,13,11,45,12.60
2014,08,13,11,46,12.60
2014,08,13,11,47,12.60
2014,08,13,11,48,12.60
2014,08,13,11,49,12.60
2014,08,13,11,50,12.60
2014,08,13,11,51,12.60
2014,08,13,11,52,12.60
2014,08,13,11,53,12.60
2014,08,13,11,54,12.60
2014,08,13,11,55,12.60
2014,08,13,11,56,12.60
2014,08,13,11,57,12.60
2014,08,13,11,58,12.60
2014,08,13,11,59,12.60
2014,08,13,12,00,12.60
2014,08,13,12,01,12.60
2014,08,13,12,02,12.60
2014,08,13,12,03,12.60
2014,08,13,12,04,12.60
2014,08,13,12,05,12.60
2014,08,13,12,06,12.60
2014,08,13,12,07,12.60
2014,08,13,12,08,12.60
2014,08,13,12,09,12.60
2014,08,13,12,10,12.60
2014,08,13,12,11,12.60
2014,08,13,12,12,12.60
2014,08,13,12,13,12.60
2014,08,13,12,14,12.60
2014,08,13,12,15,12.60
2014,08,13,12,16,12.60
2014,08,13,12,17,12.40
2014,08,13,12,18,12.40
2014,08,13,12,19,12.40
2014,08,13,12,20,12.40
2014,08,13,12,21,12.40
2014,08,13,12,22,12.40
2014,08,13,12,23,12.40
2014,08,13,12,24,12.40
2014,08,13,12,25,12.40
2014,08,13,12,26,12.40
2014,08,13,12,27,12.40
2014,08,13,12,28,12.40
2014,08,13,12,29,12.40
2014,08,13,12,30,12.40
2014,08,13,12,31,12.40
2014,08,13,12,32,12.40
2014,08,13,12,33,12.40
2014,08,13,12,34,12.40
2014,08,13,12,35,12.40
2014,08,13,12,36,12.40
2014,08,13,12,37,12.40
2014,08,13,12,38,12.40
2014,08,13,12,39,12.40
2014,08,13,12,40,12.40
2014,08,13,12,41,12.40
2014,08,13,12,42,12.40
2014,08,13,12,43,12.40
2014,08,13,12,44,12.40
2014,08,13,12,45,12.40
2014,08,13,12,46,12.40
2014,08,13,12,47,12.40
2014,08,13,12,48,12.40
2014,08,13,12,49,12.40
2014,08,13,12,50,12.40
2014,08,13,12,51,12.40
2014,08,13,12,52,12.40
2014,08,13,12,53,12.40
2014,08,13,12,54,12.40
2014,08,13,12,55,12.40
2014,08,13,12,56,12.40
2014,08,13,12,57,12.40
2014,08,13,12,58,12.40
2014,08,13,12,59,12.40
2014,08,13,13,00,12.40
2014,08,13,13,01,12.40
2014,08,13,13,02,12.40
2014,08,13,13,03,12.40
2014,08,13,13,04,12.40
2014,08,13,13,05,12.40
2014,08,13,13,06,12.40
2014,08,13,13,07,12.40
2014,08,13,13,08,12.40
2014,08,13,13,09,12.40
2014,08,13,13,10,12.40
2014,08,13,13,11,12.40
2014,08,13,13,12,12.40
2014,08,13,13,13,12.40
2014,08,13,13,14,12.40
2014,08,13,13,15,12.40
2014,08,13,13,16,12.40
2014,08,13,13,17,12.40
2014,08,13,13,18,13.10
2014,08,13,13,19,13.10
2014,08,13,13,20,13.10
2014,08,13,13,21,13.10
2014,08,13,13,22,13.10
2014,08,13,13,23,13.10
2014,08,13,13,24,13.10
2014,08,13,13,25,13.10
2014,08,13,13,26,13.10
2014,08,13,13,27,13.10
2014,08,13,13,28,13.10
2014,08,13,13,29,13.10
2014,08,13,13,30,13.10
2014,08,13,13,31,13.10
2014,08,13,13,32,13.10
2014,08,13,13,33,13.10
2014,08,13,13,34,13.10
2014,08,13,13,35,13.10
2014,08,13,13,36,13.10
2014,08,13,13,37,13.10
2014,08,13,13,38,13.10
2014,08,13,13,39,13.10
2014,08,13,13,40,13.10
2014,08,13,13,41,13.10
2014,08,13,13,42,13.10
2014,08,13,13,43,13.10
2014,08,13,13,44,13.10
2014,08,13,13,45,13.10
2014,08,13,13,46,13.10
2014,08,13,13,47,14.10
2014,08,13,13,48,14.10
2014,08,13,13,49,14.10
2014,08,13,13,50,14.10
2014,08,13,13,51,14.10
2014,08,13,13,52,14.10
2014,08,13,13,53,14.10
2014,08,13,13,54,14.10
2014,08,13,13,55,14.10
2014,08,13,13,56,14.10
2014,08,13,13,57,14.10
2014,08,13,13,58,14.10
2014,08,13,13,59,14.10
2014,08,13,14,00,14.10
2014,08,13,14,01,14.10
2014,08,13,14,02,14.10
2014,08,13,14,04,14.10
2014,08,13,14,05,14.10
2014,08,13,14,06,14.10
2014,08,13,14,07,14.10
2014,08,13,14,08,14.10
2014,08,13,14,09,14.10
2014,08,13,14,10,14.10
2014,08,13,14,11,14.10
2014,08,13,14,12,14.10
2014,08,13,14,13,14.10
2014,08,13,14,14,14.10
2014,08,13,14,15,14.10
2014,08,13,14,16,14.10
2014,08,13,14,17,14.10
2014,08,13,14,18,14.10
2014,08,13,14,19,14.10
2014,08,13,14,20,14.10
2014,08,13,14,21,14.10
2014,08,13,14,22,14.10
2014,08,13,14,23,14.10
2014,08,13,14,24,14.10
2014,08,13,14,25,14.10
2014,08,13,14,26,14.10
2014,08,13,14,27,14.10
2014,08,13,14,28,14.10
2014,08,13,14,29,14.10
2014,08,13,14,30,14.10
2014,08,13,14,31,14.10
2014,08,13,14,32,14.10
2014,08,13,14,33,14.10
2014,08,13,14,34,14.10
2014,08,13,14,35,14.10
2014,08,13,14,36,14.10
2014,08,13,14,37,14.10
2014,08,13,14,38,14.10
2014,08,13,14,39,14.10
2014,08,13,14,40,14.10
2014,08,13,14,41,14.10
2014,08,13,14,42,14.10
2014,08,13,14,43,14.10
2014,08,13,14,44,14.10
2014,08,13,14,45,14.10
2014,08,13,14,46,14.10
2014,08,13,14,47,14.10
2014,08,13,14,48,13.60
2014,08,13,14,49,13.60
2014,08,13,14,50,13.60
2014,08,13,14,51,13.60
2014,08,13,14,52,13.60
2014,08,13,14,53,13.60
2014,08,13,14,54,13.60
2014,08,13,14,55,13.60
2014,08,13,14,56,13.60
2014,08,13,14,57,13.60
2014,08,13,14,58,13.60
2014,08,13,14,59,13.60
2014,08,13,15,00,13.60
2014,08,13,15,01,13.60
2014,08,13,15,02,13.60
2014,08,13,15,03,13.60
2014,08,13,15,04,13.60
2014,08,13,15,05,13.60
2014,08,13,15,06,13.60
2014,08,13,15,07,13.60
2014,08,13,15,08,13.60
2014,08,13,15,09,13.60
2014,08,13,15,10,13.60
2014,08,13,15,11,13.60
2014,08,13,15,12,13.60
2014,08,13,15,13,13.60
2014,08,13,15,14,13.60
2014,08,13,15,15,13.60
2014,08,13,15,16,13.60
2014,08,13,15,17,13.60
2014,08,13,15,18,13.60
2014,08,13,15,19,13.60
2014,08,13,15,20,13.60
2014,08,13,15,21,13.60
2014,08,13,15,22,13.60
2014,08,13,15,23,13.60
2014,08,13,15,24,13.60
2014,08,13,15,25,13.60
2014,08,13,15,26,13.60
2014,08,13,15,27,13.60
2014,08,13,15,28,13.60
2014,08,13,15,29,13.60
2014,08,13,15,30,13.60
2014,08,13,15,31,13.60
2014,08,13,15,32,13.60
2014,08,13,15,33,13.60
2014,08,13,15,34,13.60
2014,08,13,15,35,13.60
2014,08,13,15,36,13.60
2014,08,13,15,37,13.60
2014,08,13,15,38,13.60
2014,08,13,15,39,13.60
2014,08,13,15,40,13.60
2014,08,13,15,41,13.60
2014,08,13,15,42,13.60
2014,08,13,15,43,13.60
2014,08,13,15,44,13.60
2014,08,13,15,45,13.60
2014,08,13,15,46,13.60
2014,08,13,15,47,13.60
2014,08,13,15,48,13.60
2014,08,13,15,49,14.30
2014,08,13,15,50,14.30
2014,08,13,15,51,14.30
2014,08,13,15,52,14.30
2014,08,13,15,53,14.30
2014,08,13,15,54,14.30
2014,08,13,15,55,14.30
2014,08,13,15,56,14.30
2014,08,13,15,57,14.30
2014,08,13,15,58,14.30
2014,08,13,15,59,14.30
2014,08,13,16,00,14.30
2014,08,13,16,01,14.30
2014,08,13,16,02,14.30
2014,08,13,16,03,14.30
2014,08,13,16,04,14.30
2014,08,13,16,05,14.30
2014,08,13,16,06,14.30
2014,08,13,16,07,14.30
2014,08,13,16,08,14.30
2014,08,13,16,09,14.30
2014,08,13,16,10,14.30
2014,08,13,16,11,14.30
2014,08,13,16,12,14.30
2014,08,13,16,13,14.30
2014,08,13,16,14,14.30
2014,08,13,16,15,14.30
2014,08,13,16,16,14.30
2014,08,13,16,17,14.30
2014,08,13,16,18,14.30
2014,08,13,16,19,14.30
2014,08,13,16,20,14.30
2014,08,13,16,21,14.30
2014,08,13,16,22,14.30
2014,08,13,16,23,14.30
2014,08,13,16,24,14.30
2014,08,13,16,25,14.30
2014,08,13,16,26,14.30
2014,08,13,16,27,14.30
2014,08,13,16,28,14.30
2014,08,13,16,29,14.30
2014,08,13,16,30,14.30
2014,08,13,16,31,14.30
2014,08,13,16,32,14.30
2014,08,13,16,33,14.30
2014,08,13,16,34,14.30
2014,08,13,16,35,14.30
2014,08,13,16,36,14.30
2014,08,13,16,37,14.30
2014,08,13,16,38,14.30
2014,08,13,16,39,14.30
2014,08,13,16,40,14.30
2014,08,13,16,41,14.30
2014,08,13,16,42,14.30
2014,08,13,16,43,14.30
2014,08,13,16,44,14.30
2014,08,13,16,45,14.30
2014,08,13,16,46,14.30
2014,08,13,16,47,14.30
2014,08,13,16,48,14.30
2014,08,13,16,49,14.30
2014,08,13,16,50,14.10
2014,08,13,16,51,14.10
2014,08,13,16,52,14.10
2014,08,13,16,53,14.10
2014,08,13,16,54,14.10
2014,08,13,16,55,14.10
2014,08,13,16,56,14.10
2014,08,13,16,57,14.10
2014,08,13,16,58,14.10
2014,08,13,16,59,14.10
2014,08,13,17,00,14.10
2014,08,13,17,01,14.10
2014,08,13,17,02,14.10
2014,08,13,17,03,14.10
2014,08,13,17,04,14.10
2014,08,13,17,05,14.10
2014,08,13,17,06,14.10
2014,08,13,17,07,14.10
2014,08,13,17,08,14.10
2014,08,13,17,09,14.10
2014,08,13,17,10,14.10
2014,08,13,17,11,14.10
2014,08,13,17,12,14.10
2014,08,13,17,13,14.10
2014,08,13,17,14,14.10
2014,08,13,17,15,14.10
2014,08,13,17,16,14.10
2014,08,13,17,17,14.10
2014,08,13,17,18,14.10
2014,08,13,17,19,14.10
2014,08,13,17,20,14.10
2014,08,13,17,21,14.10
2014,08,13,17,22,14.10
2014,08,13,17,23,14.10
2014,08,13,17,26,14.20
2014,08,13,17,27,14.20
2014,08,13,17,28,14.20
2014,08,13,17,29,14.20
2014,08,13,17,30,14.20
2014,08,13,17,31,14.20
2014,08,13,17,32,14.20
2014,08,13,17,33,14.20
2014,08,13,17,34,14.20
2014,08,13,17,35,14.20
2014,08,13,17,36,14.20
2014,08,13,17,37,14.20
2014,08,13,17,38,14.20
2014,08,13,17,39,14.20
2014,08,13,17,40,14.20
2014,08,13,17,41,14.20
2014,08,13,17,42,14.20
2014,08,13,17,43,14.20
2014,08,13,17,44,14.20
2014,08,13,17,45,14.20
2014,08,13,17,46,14.20
2014,08,13,17,47,14.20
2014,08,13,17,48,14.20
2014,08,13,17,49,14.20
2014,08,13,17,50,14.20
2014,08,13,17,51,14.20
2014,08,13,17,52,14.20
2014,08,13,17,53,14.20
2014,08,13,17,54,14.20
2014,08,13,17,55,14.20
2014,08,13,17,56,14.20
2014,08,13,17,57,14.20
2014,08,13,17,58,14.20
2014,08,13,17,59,14.20
2014,08,13,18,00,14.20
2014,08,13,18,01,14.20
2014,08,13,18,02,14.20
2014,08,13,18,03,14.20
2014,08,13,18,04,14.20
2014,08,13,18,05,14.20
2014,08,13,18,06,14.20
2014,08,13,18,07,14.20
2014,08,13,18,08,14.20
2014,08,13,18,09,14.20
2014,08,13,18,10,14.20
2014,08,13,18,11,14.20
2014,08,13,18,12,14.20
2014,08,13,18,13,14.20
2014,08,13,18,14,14.20
2014,08,13,18,15,14.20
2014,08,13,18,16,14.20
2014,08,13,18,17,14.20
2014,08,13,18,18,14.20
2014,08,13,18,19,14.20
2014,08,13,18,20,14.20
2014,08,13,18,21,14.20
2014,08,13,18,22,14.20
2014,08,13,18,23,14.20
2014,08,13,18,24,14.20
2014,08,13,18,25,14.20
2014,08,13,18,26,12.20
2014,08,13,18,27,12.20
2014,08,13,18,28,12.20
2014,08,13,18,29,12.20
2014,08,13,18,30,12.20
2014,08,13,18,31,12.20
2014,08,13,18,32,12.20
2014,08,13,18,33,12.20
2014,08,13,18,34,12.20
2014,08,13,18,35,12.20
2014,08,13,18,36,12.20
2014,08,13,18,37,12.20
2014,08,13,18,38,12.20
2014,08,13,18,39,12.20
2014,08,13,18,40,12.20
2014,08,13,18,41,12.20
2014,08,13,18,42,12.20
2014,08,13,18,43,12.20
2014,08,13,18,44,12.20
2014,08,13,18,45,12.20
2014,08,13,18,46,12.20
2014,08,13,18,47,12.20
2014,08,13,18,48,12.20
2014,08,13,18,49,12.20
2014,08,13,18,50,12.20
2014,08,13,18,51,12.20
2014,08,13,18,52,12.20
2014,08,13,18,53,12.20
2014,08,13,18,54,12.20
2014,08,13,18,55,12.20
2014,08,13,18,56,12.20
2014,08,13,18,57,12.20
2014,08,13,18,58,12.20
2014,08,13,18,59,12.20
2014,08,13,19,00,12.20
2014,08,13,19,01,12.20
2014,08,13,19,02,12.20
2014,08,13,19,03,12.20
2014,08,13,19,04,12.20
2014,08,13,19,05,12.20
2014,08,13,19,06,12.20
2014,08,13,19,07,12.20
2014,08,13,19,08,12.20
2014,08,13,19,09,12.20
2014,08,13,19,10,12.20
2014,08,13,19,11,12.20
2014,08,13,19,12,12.20
2014,08,13,19,13,12.20
2014,08,13,19,14,12.20
2014,08,13,19,15,12.20
2014,08,13,19,16,12.20
2014,08,13,19,17,12.20
2014,08,13,19,18,12.20
2014,08,13,19,19,12.20
2014,08,13,19,20,12.20
2014,08,13,19,21,12.20
2014,08,13,19,22,12.20
2014,08,13,19,23,12.20
2014,08,13,19,24,12.20
2014,08,13,19,25,12.20
2014,08,13,19,26,12.20
2014,08,13,19,27,11.70
2014,08,13,19,28,11.70
2014,08,13,19,29,11.70
2014,08,13,19,30,11.70
2014,08,13,19,31,11.70
2014,08,13,19,32,11.70
2014,08,13,19,33,11.70
2014,08,13,19,34,11.70
2014,08,13,19,35,11.70
2014,08,13,19,36,11.70
2014,08,13,19,37,11.70
2014,08,13,19,38,11.70
2014,08,13,19,39,11.70
2014,08,13,19,40,11.70
2014,08,13,19,41,11.70
2014,08,13,19,42,11.70
2014,08,13,19,43,11.70
2014,08,13,19,44,11.70
2014,08,13,19,45,11.70